| time (UTC) | temp F | wind direction | speed knots | gust knots | rain 1hr in | rain 24hr in | rain mn in | humidity % | barometer mb |
| 20260906161603 | 71 | 0 | 0.0 | 0.0 | 0.00 | 0.00 | 0.00 | 54 | 1024.1 |
| 20260906161047 | 72 | 0 | 0.0 | 0.0 | 0.00 | 0.00 | 0.00 | 51 | 1024.1 |
| 20260906160548 | 72 | 0 | 0.0 | 0.0 | 0.00 | 0.00 | 0.00 | 48 | 1024.2 |
| 20260906160104 | 72 | 0 | 0.0 | 0.0 | 0.00 | 0.00 | 0.00 | 47 | 1024.1 |
| 20260906155546 | 72 | 0 | 0.0 | 0.0 | 0.00 | 0.00 | 0.00 | 49 | 1024.1 |
| 20260906155047 | 72 | 0 | 0.0 | 0.0 | 0.00 | 0.00 | 0.00 | 48 | 1024.3 |
| 20260906154612 | 73 | 0 | 0.0 | 0.0 | 0.00 | 0.00 | 0.00 | 48 | 1024.3 |
| 20260906154046 | 73 | 0 | 0.0 | 0.0 | 0.00 | 0.00 | 0.00 | 48 | 1024.3 |
| 20260906153545 | 73 | 0 | 0.0 | 0.9 | 0.00 | 0.00 | 0.00 | 47 | 1024.5 |
| 20260906153055 | 73 | 0 | 0.0 | 0.9 | 0.00 | 0.00 | 0.00 | 47 | 1024.5 |
| 20260906152548 | 73 | 0 | 0.0 | 3.5 | 0.00 | 0.00 | 0.00 | 47 | 1024.6 |
| 20260906152046 | 73 | 0 | 0.0 | 3.5 | 0.00 | 0.00 | 0.00 | 45 | 1024.5 |
| 20260906151610 | 73 | 0 | 0.0 | 3.5 | 0.00 | 0.00 | 0.00 | 46 | 1024.6 |
| 20260906151046 | 73 | 0 | 0.0 | 0.9 | 0.00 | 0.00 | 0.00 | 45 | 1024.7 |
| 20260906150548 | 72 | 0 | 0.0 | 4.3 | 0.00 | 0.00 | 0.00 | 45 | 1024.6 |
| 20260906150100 | 72 | 0 | 0.0 | 4.3 | 0.00 | 0.00 | 0.00 | 47 | 1024.6 |
| 20260906145545 | 72 | 0 | 0.0 | 0.9 | 0.00 | 0.00 | 0.00 | 45 | 1024.6 |
| 20260906145047 | 72 | 0 | 0.0 | 0.9 | 0.00 | 0.00 | 0.00 | 46 | 1024.6 |
| 20260906144606 | 72 | 0 | 0.0 | 0.0 | 0.00 | 0.00 | 0.00 | 44 | 1024.6 |
| 20260906144046 | 73 | 0 | 0.0 | 0.0 | 0.00 | 0.00 | 0.00 | 44 | 1024.8 |
| 20260906143546 | 73 | 0 | 0.0 | 0.0 | 0.00 | 0.00 | 0.00 | 44 | 1024.8 |
| 20260906143057 | 72 | 0 | 0.0 | 3.5 | 0.00 | 0.00 | 0.00 | 44 | 1024.9 |
| 20260906142549 | 72 | 0 | 0.0 | 3.5 | 0.00 | 0.00 | 0.00 | 46 | 1025.1 |
| 20260906142045 | 73 | 193 | 0.0 | 1.7 | 0.00 | 0.00 | 0.00 | 45 | 1025.2 |
| 20260906141604 | 73 | 0 | 0.0 | 4.3 | 0.00 | 0.00 | 0.00 | 44 | 1025.2 |
| 20260906141046 | 73 | 0 | 0.0 | 4.3 | 0.00 | 0.00 | 0.00 | 46 | 1025.1 |
| 20260906140546 | 72 | 0 | 0.0 | 4.3 | 0.00 | 0.00 | 0.00 | 44 | 1025.2 |
| 20260906140059 | 72 | 0 | 0.0 | 0.0 | 0.00 | 0.00 | 0.00 | 42 | 1025.3 |
| 20260906135546 | 72 | 0 | 0.0 | 0.0 | 0.00 | 0.00 | 0.00 | 44 | 1025.3 |
| 20260906135047 | 72 | 0 | 0.0 | 0.0 | 0.00 | 0.00 | 0.00 | 43 | 1025.4 |
| 20260906134557 | 72 | 0 | 0.0 | 0.0 | 0.00 | 0.00 | 0.00 | 44 | 1025.5 |
| 20260906134048 | 72 | 0 | 0.0 | 0.0 | 0.00 | 0.00 | 0.00 | 45 | 1025.7 |
| 20260906133547 | 71 | 0 | 0.0 | 0.0 | 0.00 | 0.00 | 0.00 | 46 | 1025.6 |
| 20260906133119 | 71 | 0 | 0.0 | 0.0 | 0.00 | 0.00 | 0.00 | 47 | 1025.7 |
| 20260906132546 | 71 | 0 | 0.0 | 2.6 | 0.00 | 0.00 | 0.00 | 46 | 1025.8 |
| 20260906132046 | 71 | 0 | 0.0 | 2.6 | 0.00 | 0.00 | 0.00 | 48 | 1025.8 |
| 20260906131604 | 71 | 0 | 0.0 | 2.6 | 0.00 | 0.00 | 0.00 | 46 | 1025.9 |
| 20260906131045 | 71 | 0 | 0.0 | 0.0 | 0.00 | 0.00 | 0.00 | 46 | 1026.0 |
| 20260906130547 | 70 | 0 | 0.0 | 0.0 | 0.00 | 0.00 | 0.00 | 46 | 1025.9 |
| 20260906130112 | 70 | 0 | 0.0 | 0.0 | 0.00 | 0.00 | 0.00 | 47 | 1026.1 |
| 20260906125548 | 70 | 0 | 0.0 | 0.0 | 0.00 | 0.00 | 0.00 | 46 | 1026.2 |
| 20260906125047 | 71 | 0 | 0.0 | 0.0 | 0.00 | 0.00 | 0.00 | 44 | 1026.2 |
| 20260906124605 | 71 | 0 | 0.0 | 4.3 | 0.00 | 0.00 | 0.00 | 43 | 1026.2 |
| 20260906124047 | 70 | 0 | 0.0 | 4.3 | 0.00 | 0.00 | 0.00 | 45 | 1026.3 |
| 20260906123546 | 69 | 0 | 0.0 | 3.5 | 0.00 | 0.00 | 0.00 | 44 | 1026.3 |
| 20260906123104 | 70 | 0 | 0.0 | 0.0 | 0.00 | 0.00 | 0.00 | 44 | 1026.4 |
| 20260906122546 | 70 | 0 | 0.0 | 0.0 | 0.00 | 0.00 | 0.00 | 46 | 1026.4 |
| 20260906122046 | 70 | 0 | 0.0 | 0.0 | 0.00 | 0.00 | 0.00 | 46 | 1026.3 |
| 20260906121559 | 69 | 0 | 0.0 | 0.0 | 0.00 | 0.00 | 0.00 | 47 | 1026.4 |
| 20260906121047 | 69 | 0 | 0.0 | 0.0 | 0.00 | 0.00 | 0.00 | 48 | 1026.5 |
| 20260906120548 | 69 | 0 | 0.0 | 3.5 | 0.00 | 0.00 | 0.00 | 47 | 1026.7 |
| 20260906115547 | 69 | 0 | 0.0 | 3.5 | 0.00 | 0.00 | 0.00 | 49 | 1026.8 |
| 20260906115046 | 68 | 0 | 0.0 | 1.7 | 0.00 | 0.00 | 0.00 | 48 | 1026.7 |
| 20260906114607 | 68 | 0 | 0.0 | 1.7 | 0.00 | 0.00 | 0.00 | 51 | 1026.8 |
| 20260906114046 | 67 | 0 | 0.0 | 0.9 | 0.00 | 0.00 | 0.00 | 51 | 1027.0 |
| 20260906113546 | 67 | 0 | 0.0 | 0.9 | 0.00 | 0.00 | 0.00 | 52 | 1026.9 |
| 20260906113105 | 67 | 0 | 0.0 | 0.9 | 0.00 | 0.00 | 0.00 | 55 | 1027.1 |
| 20260906112546 | 67 | 0 | 0.0 | 0.0 | 0.00 | 0.00 | 0.00 | 52 | 1027.0 |
| 20260906112046 | 67 | 0 | 0.0 | 1.7 | 0.00 | 0.00 | 0.00 | 51 | 1027.0 |
| 20260906111600 | 68 | 0 | 0.0 | 1.7 | 0.00 | 0.00 | 0.00 | 51 | 1027.1 |
| 20260906111045 | 68 | 0 | 0.0 | 0.0 | 0.00 | 0.00 | 0.00 | 55 | 1027.1 |
| 20260906110547 | 68 | 0 | 0.0 | 0.9 | 0.00 | 0.00 | 0.00 | 53 | 1027.2 |
| 20260906110104 | 68 | 0 | 0.0 | 0.9 | 0.00 | 0.00 | 0.00 | 54 | 1027.2 |
| 20260906105543 | 67 | 0 | 0.0 | 0.0 | 0.00 | 0.00 | 0.00 | 58 | 1027.2 |
| 20260906105047 | 66 | 0 | 0.0 | 0.0 | 0.00 | 0.00 | 0.00 | 60 | 1027.2 |
| 20260906104602 | 66 | 0 | 0.0 | 3.5 | 0.00 | 0.00 | 0.00 | 59 | 1027.3 |
| 20260906104043 | 67 | 0 | 0.0 | 3.5 | 0.00 | 0.00 | 0.00 | 60 | 1027.3 |
| 20260906103545 | 66 | 26 | 0.0 | 3.5 | 0.00 | 0.00 | 0.00 | 60 | 1027.4 |
| 20260906103105 | 66 | 0 | 0.0 | 0.0 | 0.00 | 0.00 | 0.00 | 62 | 1027.6 |
| 20260906102543 | 66 | 0 | 0.0 | 0.0 | 0.00 | 0.00 | 0.00 | 63 | 1027.7 |
| 20260906102044 | 66 | 0 | 0.0 | 0.0 | 0.00 | 0.00 | 0.00 | 62 | 1027.7 |
| 20260906101600 | 65 | 0 | 0.0 | 0.0 | 0.00 | 0.00 | 0.00 | 65 | 1027.7 |
| 20260906101045 | 65 | 0 | 0.0 | 0.0 | 0.00 | 0.00 | 0.00 | 65 | 1027.8 |
| 20260906100544 | 65 | 0 | 0.0 | 0.0 | 0.00 | 0.00 | 0.00 | 64 | 1027.9 |
| 20260906095544 | 66 | 0 | 0.0 | 0.0 | 0.00 | 0.00 | 0.00 | 65 | 1027.9 |
| 20260906095045 | 66 | 0 | 0.0 | 0.0 | 0.00 | 0.00 | 0.00 | 64 | 1028.0 |
| 20260906094610 | 65 | 0 | 0.0 | 0.0 | 0.00 | 0.00 | 0.00 | 66 | 1028.0 |
| 20260906094043 | 64 | 0 | 0.0 | 0.0 | 0.00 | 0.00 | 0.00 | 67 | 1028.1 |
| 20260906093543 | 65 | 0 | 0.0 | 0.0 | 0.00 | 0.00 | 0.00 | 67 | 1028.1 |
| 20260906093107 | 64 | 0 | 0.0 | 0.0 | 0.00 | 0.00 | 0.00 | 67 | 1028.3 |
| 20260906092551 | 63 | 0 | 0.0 | 0.0 | 0.00 | 0.00 | 0.00 | 65 | 1028.2 |
| 20260906092046 | 63 | 0 | 0.0 | 0.0 | 0.00 | 0.00 | 0.00 | 66 | 1028.4 |
| 20260906091555 | 64 | 0 | 0.0 | 0.0 | 0.00 | 0.00 | 0.00 | 67 | 1028.4 |
| 20260906091045 | 64 | 0 | 0.0 | 0.0 | 0.00 | 0.00 | 0.00 | 69 | 1028.3 |
| 20260906090543 | 63 | 0 | 0.0 | 0.0 | 0.00 | 0.00 | 0.00 | 69 | 1028.3 |
| 20260906090135 | 63 | 0 | 0.0 | 0.0 | 0.00 | 0.00 | 0.00 | 72 | 1028.3 |
| 20260906085547 | 63 | 0 | 0.0 | 0.0 | 0.00 | 0.00 | 0.00 | 69 | 1028.3 |
| 20260906085044 | 63 | 0 | 0.0 | 0.0 | 0.00 | 0.00 | 0.00 | 72 | 1028.2 |
| 20260906084616 | 62 | 0 | 0.0 | 0.0 | 0.00 | 0.00 | 0.00 | 71 | 1028.3 |
| 20260906084045 | 62 | 0 | 0.0 | 0.0 | 0.00 | 0.00 | 0.00 | 72 | 1028.4 |
| 20260906083543 | 61 | 0 | 0.0 | 0.0 | 0.00 | 0.00 | 0.00 | 71 | 1028.4 |
| 20260906083056 | 62 | 0 | 0.0 | 0.0 | 0.00 | 0.00 | 0.00 | 71 | 1028.4 |
| 20260906082543 | 62 | 0 | 0.0 | 0.0 | 0.00 | 0.00 | 0.00 | 73 | 1028.4 |
| 20260906082047 | 62 | 0 | 0.0 | 0.0 | 0.00 | 0.00 | 0.00 | 74 | 1028.5 |
| 20260906081600 | 61 | 0 | 0.0 | 0.0 | 0.00 | 0.00 | 0.00 | 75 | 1028.3 |
| 20260906081043 | 61 | 0 | 0.0 | 0.0 | 0.00 | 0.00 | 0.00 | 75 | 1028.4 |
| 20260906080545 | 61 | 0 | 0.0 | 0.0 | 0.00 | 0.00 | 0.00 | 76 | 1028.5 |
| 20260906080110 | 60 | 0 | 0.0 | 0.0 | 0.00 | 0.00 | 0.00 | 78 | 1028.4 |
| 20260906075546 | 60 | 0 | 0.0 | 0.0 | 0.00 | 0.00 | 0.00 | 78 | 1028.4 |
| 20260906075044 | 59 | 0 | 0.0 | 0.0 | 0.00 | 0.00 | 0.00 | 80 | 1028.4 |
| 20260906074603 | 58 | 0 | 0.0 | 0.0 | 0.00 | 0.00 | 0.00 | 80 | 1028.4 |
| 20260906074043 | 58 | 0 | 0.0 | 0.0 | 0.00 | 0.00 | 0.00 | 81 | 1028.3 |
| 20260906073546 | 58 | 0 | 0.0 | 0.0 | 0.00 | 0.00 | 0.00 | 81 | 1028.4 |
| 20260906073058 | 57 | 0 | 0.0 | 0.0 | 0.00 | 0.00 | 0.00 | 84 | 1028.3 |
| 20260906072544 | 56 | 0 | 0.0 | 0.0 | 0.00 | 0.00 | 0.00 | 85 | 1028.3 |
| 20260906072043 | 56 | 0 | 0.0 | 0.0 | 0.00 | 0.00 | 0.00 | 85 | 1028.2 |
| 20260906071559 | 55 | 0 | 0.0 | 0.0 | 0.00 | 0.00 | 0.00 | 86 | 1028.1 |
| 20260906071044 | 55 | 0 | 0.0 | 0.0 | 0.00 | 0.00 | 0.00 | 86 | 1028.1 |
| 20260906070543 | 55 | 0 | 0.0 | 0.0 | 0.00 | 0.00 | 0.00 | 87 | 1028.0 |
| 20260906065546 | 53 | 0 | 0.0 | 0.0 | 0.00 | 0.00 | 0.00 | 90 | 1028.0 |
| 20260906065044 | 53 | 0 | 0.0 | 0.0 | 0.00 | 0.00 | 0.00 | 90 | 1028.0 |
| 20260906064602 | 52 | 0 | 0.0 | 0.0 | 0.00 | 0.00 | 0.00 | 91 | 1027.9 |
| 20260906064047 | 52 | 0 | 0.0 | 0.0 | 0.00 | 0.00 | 0.00 | 92 | 1027.9 |
| 20260906063543 | 51 | 0 | 0.0 | 0.0 | 0.00 | 0.00 | 0.00 | 93 | 1027.9 |
| 20260906063057 | 51 | 0 | 0.0 | 0.0 | 0.00 | 0.00 | 0.00 | 93 | 1027.9 |
| 20260906062545 | 51 | 0 | 0.0 | 0.0 | 0.00 | 0.00 | 0.00 | 94 | 1028.0 |
| 20260906062045 | 51 | 0 | 0.0 | 0.0 | 0.00 | 0.00 | 0.00 | 94 | 1028.1 |
| 20260906061609 | 51 | 0 | 0.0 | 0.0 | 0.00 | 0.00 | 0.00 | 94 | 1028.0 |
| 20260906061046 | 50 | 0 | 0.0 | 0.0 | 0.00 | 0.00 | 0.00 | 95 | 1027.8 |
| 20260906060548 | 50 | 0 | 0.0 | 0.0 | 0.00 | 0.00 | 0.00 | 95 | 1028.0 |
| 20260906060103 | 50 | 0 | 0.0 | 0.0 | 0.00 | 0.00 | 0.00 | 95 | 1028.0 |
| 20260906055546 | 49 | 0 | 0.0 | 0.0 | 0.00 | 0.00 | 0.00 | 96 | 1028.0 |
| 20260906055047 | 49 | 0 | 0.0 | 0.0 | 0.00 | 0.00 | 0.00 | 96 | 1028.0 |
| 20260906054607 | 49 | 0 | 0.0 | 0.0 | 0.00 | 0.00 | 0.00 | 96 | 1028.0 |
| 20260906054046 | 49 | 0 | 0.0 | 0.0 | 0.00 | 0.00 | 0.00 | 96 | 1028.0 |
| 20260906053548 | 49 | 0 | 0.0 | 0.0 | 0.00 | 0.00 | 0.00 | 96 | 1027.8 |
| 20260906053119 | 48 | 0 | 0.0 | 0.0 | 0.00 | 0.00 | 0.00 | 96 | 1027.8 |
| 20260906052546 | 48 | 0 | 0.0 | 0.0 | 0.00 | 0.00 | 0.00 | 96 | 1027.7 |
| 20260906052046 | 48 | 0 | 0.0 | 0.0 | 0.00 | 0.00 | 0.00 | 96 | 1027.8 |
| 20260906051625 | 48 | 0 | 0.0 | 0.0 | 0.00 | 0.00 | 0.00 | 96 | 1027.8 |
| 20260906051045 | 48 | 0 | 0.0 | 0.0 | 0.00 | 0.00 | 0.00 | 96 | 1027.7 |
| 20260906050544 | 48 | 0 | 0.0 | 0.0 | 0.00 | 0.00 | 0.00 | 96 | 1027.5 |
| 20260906050059 | 47 | 0 | 0.0 | 0.0 | 0.00 | 0.00 | 0.00 | 96 | 1027.6 |
| 20260906045548 | 47 | 0 | 0.0 | 0.0 | 0.00 | 0.00 | 0.00 | 96 | 1027.7 |
| 20260906045043 | 47 | 0 | 0.0 | 0.0 | 0.00 | 0.00 | 0.00 | 96 | 1027.7 |
| 20260906044621 | 47 | 0 | 0.0 | 0.0 | 0.00 | 0.00 | 0.00 | 96 | 1027.8 |
| 20260906044047 | 47 | 0 | 0.0 | 0.0 | 0.00 | 0.00 | 0.00 | 96 | 1027.7 |
| 20260906043547 | 47 | 0 | 0.0 | 0.0 | 0.00 | 0.00 | 0.00 | 96 | 1027.9 |
| 20260906043102 | 46 | 0 | 0.0 | 0.0 | 0.00 | 0.00 | 0.00 | 96 | 1027.8 |
| 20260906042545 | 47 | 0 | 0.0 | 0.0 | 0.00 | 0.00 | 0.00 | 96 | 1027.9 |
| 20260906042045 | 47 | 0 | 0.0 | 0.0 | 0.00 | 0.00 | 0.00 | 96 | 1027.9 |
| 20260906041557 | 47 | 0 | 0.0 | 0.0 | 0.00 | 0.00 | 0.00 | 96 | 1027.9 |
| 20260906041047 | 47 | 0 | 0.0 | 0.0 | 0.00 | 0.00 | 0.00 | 96 | 1027.8 |
| 20260906040546 | 47 | 0 | 0.0 | 0.0 | 0.00 | 0.00 | 0.00 | 96 | 1027.8 |
| 20260906040106 | 46 | 0 | 0.0 | 0.0 | 0.00 | 0.00 | 0.00 | 96 | 1027.9 |
| 20260906035546 | 46 | 0 | 0.0 | 0.0 | 0.00 | 0.00 | 0.00 | 96 | 1027.9 |
| 20260906035046 | 46 | 0 | 0.0 | 0.0 | 0.00 | 0.00 | 0.00 | 96 | 1027.9 |
| 20260906034601 | 46 | 0 | 0.0 | 0.0 | 0.00 | 0.00 | 0.00 | 96 | 1028.0 |
| 20260906034047 | 46 | 0 | 0.0 | 0.0 | 0.00 | 0.00 | 0.00 | 95 | 1028.0 |
| 20260906033546 | 46 | 0 | 0.0 | 0.0 | 0.00 | 0.00 | 0.00 | 95 | 1028.0 |
| 20260906033059 | 47 | 0 | 0.0 | 0.0 | 0.00 | 0.00 | 0.00 | 96 | 1027.9 |
| 20260906032544 | 47 | 0 | 0.0 | 0.0 | 0.00 | 0.00 | 0.00 | 96 | 1027.9 |
| 20260906032043 | 47 | 0 | 0.0 | 0.0 | 0.00 | 0.00 | 0.00 | 96 | 1027.9 |
| 20260906031605 | 47 | 0 | 0.0 | 0.0 | 0.00 | 0.00 | 0.00 | 96 | 1027.8 |
| 20260906031045 | 46 | 0 | 0.0 | 0.0 | 0.00 | 0.00 | 0.00 | 96 | 1027.9 |
| 20260906030547 | 46 | 0 | 0.0 | 0.0 | 0.00 | 0.00 | 0.00 | 96 | 1028.1 |
| 20260906030107 | 47 | 0 | 0.0 | 0.0 | 0.00 | 0.00 | 0.00 | 95 | 1028.2 |
| 20260906025546 | 47 | 0 | 0.0 | 0.0 | 0.00 | 0.00 | 0.00 | 95 | 1028.2 |
| 20260906025046 | 47 | 0 | 0.0 | 0.0 | 0.00 | 0.00 | 0.00 | 96 | 1028.1 |
| 20260906024623 | 47 | 0 | 0.0 | 0.0 | 0.00 | 0.00 | 0.00 | 95 | 1028.0 |
| 20260906024046 | 47 | 0 | 0.0 | 0.0 | 0.00 | 0.00 | 0.00 | 96 | 1028.0 |
| 20260906023546 | 47 | 0 | 0.0 | 0.0 | 0.00 | 0.00 | 0.00 | 96 | 1028.1 |
| 20260906023107 | 47 | 0 | 0.0 | 0.0 | 0.00 | 0.00 | 0.00 | 96 | 1028.0 |
| 20260906022547 | 47 | 0 | 0.0 | 0.0 | 0.00 | 0.00 | 0.00 | 95 | 1028.0 |
| 20260906022049 | 47 | 0 | 0.0 | 0.0 | 0.00 | 0.00 | 0.00 | 95 | 1028.0 |
| 20260906021605 | 47 | 0 | 0.0 | 0.0 | 0.00 | 0.00 | 0.00 | 95 | 1028.0 |
| 20260906021043 | 47 | 0 | 0.0 | 0.0 | 0.00 | 0.00 | 0.00 | 95 | 1027.9 |
| 20260906020547 | 48 | 0 | 0.0 | 0.0 | 0.00 | 0.00 | 0.00 | 96 | 1027.8 |
| 20260906020106 | 47 | 0 | 0.0 | 0.0 | 0.00 | 0.00 | 0.00 | 95 | 1027.7 |
| 20260906015545 | 47 | 0 | 0.0 | 0.0 | 0.00 | 0.00 | 0.00 | 95 | 1027.7 |
| 20260906015046 | 48 | 0 | 0.0 | 0.0 | 0.00 | 0.00 | 0.00 | 95 | 1027.7 |
| 20260906014556 | 48 | 0 | 0.0 | 0.0 | 0.00 | 0.00 | 0.00 | 95 | 1027.7 |
| 20260906014046 | 48 | 0 | 0.0 | 0.0 | 0.00 | 0.00 | 0.00 | 95 | 1027.6 |
| 20260906013547 | 48 | 0 | 0.0 | 0.0 | 0.00 | 0.00 | 0.00 | 95 | 1027.7 |
| 20260906013054 | 48 | 0 | 0.0 | 0.0 | 0.00 | 0.00 | 0.00 | 95 | 1027.7 |
| 20260906012546 | 48 | 0 | 0.0 | 0.0 | 0.00 | 0.00 | 0.00 | 95 | 1027.7 |
| 20260906012046 | 48 | 0 | 0.0 | 0.0 | 0.00 | 0.00 | 0.00 | 95 | 1027.8 |
| 20260906011604 | 48 | 0 | 0.0 | 0.0 | 0.00 | 0.00 | 0.00 | 95 | 1027.8 |
| 20260906011047 | 48 | 0 | 0.0 | 0.0 | 0.00 | 0.00 | 0.00 | 95 | 1027.8 |
| 20260906010546 | 48 | 0 | 0.0 | 0.0 | 0.00 | 0.00 | 0.00 | 95 | 1027.7 |
| 20260906010130 | 48 | 0 | 0.0 | 0.0 | 0.00 | 0.00 | 0.00 | 95 | 1027.7 |
| 20260906005546 | 48 | 0 | 0.0 | 0.0 | 0.00 | 0.00 | 0.00 | 95 | 1027.5 |
| 20260906005045 | 49 | 0 | 0.0 | 0.0 | 0.00 | 0.00 | 0.00 | 95 | 1027.7 |
| 20260906004557 | 49 | 0 | 0.0 | 0.0 | 0.00 | 0.00 | 0.00 | 95 | 1027.5 |
| 20260906004044 | 49 | 0 | 0.0 | 0.0 | 0.00 | 0.00 | 0.00 | 95 | 1027.6 |
| 20260906003546 | 49 | 0 | 0.0 | 0.0 | 0.00 | 0.00 | 0.00 | 95 | 1027.7 |
| 20260906003058 | 49 | 0 | 0.0 | 0.0 | 0.00 | 0.00 | 0.00 | 94 | 1027.4 |
| 20260906002545 | 49 | 0 | 0.0 | 0.0 | 0.00 | 0.00 | 0.00 | 94 | 1027.4 |
| 20260906002051 | 49 | 0 | 0.0 | 0.0 | 0.00 | 0.00 | 0.00 | 94 | 1027.6 |
| 20260906001605 | 49 | 0 | 0.0 | 0.0 | 0.00 | 0.00 | 0.00 | 94 | 1027.5 |
| 20260906001047 | 49 | 0 | 0.0 | 0.0 | 0.00 | 0.00 | 0.00 | 94 | 1027.6 |
| 20260906000547 | 49 | 0 | 0.0 | 0.0 | 0.00 | 0.00 | 0.00 | 94 | 1027.5 |
| 20260905235546 | 49 | 0 | 0.0 | 0.0 | 0.00 | 0.00 | 0.00 | 94 | 1027.5 |
| 20260905235045 | 49 | 0 | 0.0 | 0.0 | 0.00 | 0.00 | 0.00 | 94 | 1027.5 |
| 20260905234605 | 50 | 0 | 0.0 | 0.0 | 0.00 | 0.00 | 0.00 | 94 | 1027.6 |
| 20260905234045 | 50 | 0 | 0.0 | 0.0 | 0.00 | 0.00 | 0.00 | 93 | 1027.4 |
| 20260905233546 | 50 | 0 | 0.0 | 0.0 | 0.00 | 0.00 | 0.00 | 93 | 1027.5 |
| 20260905233055 | 50 | 0 | 0.0 | 0.0 | 0.00 | 0.00 | 0.00 | 93 | 1027.5 |
| 20260905232549 | 50 | 0 | 0.0 | 0.0 | 0.00 | 0.00 | 0.00 | 93 | 1027.5 |
| 20260905232045 | 51 | 0 | 0.0 | 0.0 | 0.00 | 0.00 | 0.00 | 93 | 1027.3 |
| 20260905231555 | 51 | 0 | 0.0 | 0.0 | 0.00 | 0.00 | 0.00 | 93 | 1027.4 |
| 20260905231044 | 50 | 0 | 0.0 | 0.0 | 0.00 | 0.00 | 0.00 | 93 | 1027.2 |
| 20260905230549 | 51 | 0 | 0.0 | 0.0 | 0.00 | 0.00 | 0.00 | 93 | 1027.3 |
| 20260905230120 | 51 | 0 | 0.0 | 0.0 | 0.00 | 0.00 | 0.00 | 92 | 1027.3 |
| 20260905225545 | 51 | 0 | 0.0 | 0.0 | 0.00 | 0.00 | 0.00 | 92 | 1027.5 |
| 20260905225045 | 51 | 0 | 0.0 | 0.0 | 0.00 | 0.00 | 0.00 | 92 | 1027.4 |
| 20260905224604 | 51 | 0 | 0.0 | 0.0 | 0.00 | 0.00 | 0.00 | 92 | 1027.4 |
| 20260905224046 | 51 | 0 | 0.0 | 0.0 | 0.00 | 0.00 | 0.00 | 92 | 1027.4 |
| 20260905223545 | 51 | 0 | 0.0 | 0.0 | 0.00 | 0.00 | 0.00 | 91 | 1027.4 |
| 20260905223106 | 52 | 0 | 0.0 | 0.0 | 0.00 | 0.00 | 0.00 | 91 | 1027.4 |
| 20260905222547 | 52 | 0 | 0.0 | 0.0 | 0.00 | 0.00 | 0.00 | 91 | 1027.3 |
| 20260905222046 | 52 | 0 | 0.0 | 0.0 | 0.00 | 0.00 | 0.00 | 90 | 1027.1 |
| 20260905221610 | 52 | 0 | 0.0 | 0.0 | 0.00 | 0.00 | 0.00 | 90 | 1027.1 |
| 20260905221048 | 52 | 0 | 0.0 | 0.0 | 0.00 | 0.00 | 0.00 | 90 | 1027.0 |
| 20260905220548 | 53 | 0 | 0.0 | 0.0 | 0.00 | 0.00 | 0.00 | 89 | 1026.9 |
| 20260905220103 | 53 | 0 | 0.0 | 0.0 | 0.00 | 0.00 | 0.00 | 89 | 1026.9 |
| 20260905215548 | 53 | 0 | 0.0 | 0.0 | 0.00 | 0.00 | 0.00 | 89 | 1027.0 |
| 20260905215045 | 53 | 0 | 0.0 | 0.0 | 0.00 | 0.00 | 0.00 | 89 | 1026.9 |
| 20260905214606 | 53 | 0 | 0.0 | 0.0 | 0.00 | 0.00 | 0.00 | 88 | 1027.0 |
| 20260905214046 | 53 | 0 | 0.0 | 0.0 | 0.00 | 0.00 | 0.00 | 88 | 1026.9 |
| 20260905213546 | 54 | 0 | 0.0 | 0.0 | 0.00 | 0.00 | 0.00 | 87 | 1026.9 |
| 20260905213105 | 54 | 0 | 0.0 | 0.0 | 0.00 | 0.00 | 0.00 | 87 | 1026.9 |
| 20260905212546 | 54 | 0 | 0.0 | 0.0 | 0.00 | 0.00 | 0.00 | 86 | 1026.7 |
| 20260905212045 | 54 | 0 | 0.0 | 0.0 | 0.00 | 0.00 | 0.00 | 86 | 1026.9 |
| 20260905211600 | 54 | 0 | 0.0 | 0.0 | 0.00 | 0.00 | 0.00 | 85 | 1026.8 |
| 20260905211046 | 55 | 0 | 0.0 | 0.0 | 0.00 | 0.00 | 0.00 | 85 | 1026.7 |
| 20260905210548 | 55 | 0 | 0.0 | 0.0 | 0.00 | 0.00 | 0.00 | 84 | 1026.8 |
| 20260905210105 | 55 | 0 | 0.0 | 0.0 | 0.00 | 0.00 | 0.00 | 83 | 1026.9 |
| 20260905205545 | 55 | 0 | 0.0 | 0.0 | 0.00 | 0.00 | 0.00 | 83 | 1026.8 |
| 20260905205050 | 56 | 0 | 0.0 | 0.0 | 0.00 | 0.00 | 0.00 | 83 | 1026.7 |
| 20260905204610 | 56 | 0 | 0.0 | 0.0 | 0.00 | 0.00 | 0.00 | 82 | 1026.7 |
| 20260905204042 | 56 | 0 | 0.0 | 0.0 | 0.00 | 0.00 | 0.00 | 82 | 1026.6 |
| 20260905203546 | 56 | 0 | 0.0 | 0.0 | 0.00 | 0.00 | 0.00 | 81 | 1026.6 |
| 20260905203101 | 56 | 0 | 0.0 | 0.0 | 0.00 | 0.00 | 0.00 | 81 | 1026.5 |
| 20260905202549 | 57 | 0 | 0.0 | 0.0 | 0.00 | 0.00 | 0.00 | 80 | 1026.4 |
| 20260905202046 | 57 | 0 | 0.0 | 0.0 | 0.00 | 0.00 | 0.00 | 80 | 1026.5 |
| 20260905201610 | 57 | 0 | 0.0 | 0.0 | 0.00 | 0.00 | 0.00 | 79 | 1026.3 |
| 20260905201045 | 57 | 0 | 0.0 | 0.0 | 0.00 | 0.00 | 0.00 | 78 | 1026.3 |
| 20260905200619 | 58 | 0 | 0.0 | 0.0 | 0.00 | 0.00 | 0.00 | 77 | 1026.3 |
| 20260905200108 | 58 | 0 | 0.0 | 0.0 | 0.00 | 0.00 | 0.00 | 76 | 1026.3 |
| 20260905195545 | 59 | 0 | 0.0 | 0.0 | 0.00 | 0.00 | 0.00 | 74 | 1026.3 |
| 20260905195045 | 60 | 0 | 0.0 | 3.5 | 0.00 | 0.00 | 0.00 | 72 | 1026.2 |
| 20260905194559 | 61 | 0 | 0.0 | 3.5 | 0.00 | 0.00 | 0.00 | 71 | 1026.3 |
| 20260905194042 | 61 | 0 | 0.0 | 1.7 | 0.00 | 0.00 | 0.00 | 70 | 1026.3 |
| 20260905193545 | 61 | 0 | 0.0 | 1.7 | 0.00 | 0.00 | 0.00 | 70 | 1026.3 |
| 20260905193101 | 61 | 0 | 0.0 | 1.7 | 0.00 | 0.00 | 0.00 | 70 | 1026.3 |
| 20260905192546 | 61 | 0 | 0.0 | 1.7 | 0.00 | 0.00 | 0.00 | 70 | 1026.3 |
| 20260905192049 | 61 | 0 | 0.0 | 0.0 | 0.00 | 0.00 | 0.00 | 71 | 1026.3 |
| 20260905191602 | 61 | 0 | 0.0 | 0.0 | 0.00 | 0.00 | 0.00 | 71 | 1026.2 |
| 20260905191045 | 61 | 0 | 0.0 | 0.0 | 0.00 | 0.00 | 0.00 | 72 | 1026.1 |
| 20260905190546 | 61 | 0 | 0.0 | 0.0 | 0.00 | 0.00 | 0.00 | 71 | 1026.0 |
| 20260905190103 | 61 | 0 | 0.0 | 0.0 | 0.00 | 0.00 | 0.00 | 70 | 1026.0 |
| 20260905185542 | 61 | 0 | 0.0 | 3.5 | 0.00 | 0.00 | 0.00 | 70 | 1025.8 |
| 20260905185042 | 62 | 0 | 0.0 | 3.5 | 0.00 | 0.00 | 0.00 | 69 | 1025.8 |
| 20260905184612 | 62 | 0 | 0.0 | 1.7 | 0.00 | 0.00 | 0.00 | 69 | 1025.7 |
| 20260905184042 | 62 | 0 | 0.0 | 1.7 | 0.00 | 0.00 | 0.00 | 69 | 1025.7 |
| 20260905183542 | 62 | 0 | 0.0 | 0.9 | 0.00 | 0.00 | 0.00 | 69 | 1025.7 |
| 20260905183114 | 62 | 0 | 0.0 | 0.9 | 0.00 | 0.00 | 0.00 | 68 | 1025.6 |
| 20260905182549 | 62 | 0 | 0.0 | 6.1 | 0.00 | 0.00 | 0.00 | 67 | 1025.4 |
| 20260905182049 | 63 | 0 | 0.0 | 6.1 | 0.00 | 0.00 | 0.00 | 67 | 1025.2 |
| 20260905181609 | 63 | 0 | 0.0 | 5.2 | 0.00 | 0.00 | 0.00 | 66 | 1025.3 |
| 20260905181042 | 63 | 0 | 0.0 | 4.3 | 0.00 | 0.00 | 0.00 | 65 | 1025.2 |
| 20260905180545 | 64 | 0 | 0.0 | 7.8 | 0.00 | 0.00 | 0.00 | 64 | 1025.2 |
| 20260905180106 | 64 | 0 | 0.0 | 8.7 | 0.00 | 0.00 | 0.00 | 63 | 1025.2 |
| 20260905175542 | 64 | 0 | 0.0 | 8.7 | 0.00 | 0.00 | 0.00 | 63 | 1025.1 |
| 20260905175042 | 64 | 0 | 0.9 | 11.3 | 0.00 | 0.00 | 0.00 | 62 | 1025.0 |
| 20260905174558 | 64 | 217 | 0.9 | 11.3 | 0.00 | 0.00 | 0.00 | 62 | 1025.0 |
| 20260905174045 | 65 | 0 | 0.0 | 13.0 | 0.00 | 0.00 | 0.00 | 61 | 1024.9 |
| 20260905173546 | 65 | 0 | 0.0 | 13.0 | 0.00 | 0.00 | 0.00 | 61 | 1024.8 |
| 20260905173115 | 65 | 279 | 2.6 | 12.2 | 0.00 | 0.00 | 0.00 | 60 | 1024.8 |
| 20260905172542 | 65 | 264 | 0.9 | 12.2 | 0.00 | 0.00 | 0.00 | 61 | 1024.7 |
| 20260905172046 | 65 | 0 | 1.7 | 12.2 | 0.00 | 0.00 | 0.00 | 61 | 1024.6 |
| 20260905171605 | 65 | 0 | 1.7 | 12.2 | 0.00 | 0.00 | 0.00 | 61 | 1024.6 |
| 20260905171045 | 65 | 0 | 1.7 | 12.2 | 0.00 | 0.00 | 0.00 | 60 | 1024.5 |
| 20260905170542 | 65 | 0 | 0.0 | 13.0 | 0.00 | 0.00 | 0.00 | 60 | 1024.4 |
| 20260905170109 | 65 | 0 | 0.9 | 13.0 | 0.00 | 0.00 | 0.00 | 60 | 1024.4 |
| 20260905165544 | 65 | 205 | 2.6 | 16.5 | 0.00 | 0.06 | 0.00 | 60 | 1024.4 |
| 20260905165045 | 66 | 239 | 0.9 | 16.5 | 0.00 | 0.06 | 0.00 | 60 | 1024.3 |
| 20260905164605 | 66 | 0 | 6.1 | 16.5 | 0.00 | 0.06 | 0.00 | 59 | 1024.3 |
| 20260905164044 | 66 | 257 | 0.9 | 14.8 | 0.00 | 0.06 | 0.00 | 61 | 1024.2 |
| 20260905163542 | 66 | 0 | 1.7 | 17.4 | 0.00 | 0.06 | 0.00 | 61 | 1024.2 |
| 20260905163105 | 66 | 0 | 3.5 | 17.4 | 0.00 | 0.06 | 0.00 | 60 | 1024.1 |
| 20260905162545 | 66 | 0 | 1.7 | 16.5 | 0.00 | 0.06 | 0.00 | 60 | 1024.1 |
| 20260905162044 | 66 | 0 | 1.7 | 16.5 | 0.00 | 0.06 | 0.00 | 60 | 1024.0 |